Theta_e
299 287 283 281 283 285 288 288 288 289 289 289 289 288 285 285 289 288 287 288 290 286 285 287 286 286 287 289 290 290 291 290 290 289 290 290 291 291 291 291 291 291 291 296 297 297 299 298 297 298 297 294 294 294 293 292 292 291 291 290 289 290 291 290 288 289 289 289 289 290 291 290 291 292 295 293 294 293 294 293 293 294 294 295 295 297
297 285 283 286 287 288 288 289 289 288 289 288 287 287 285 287 286 289 287 289 290 286 285 288 286 287 288 290 289 290 289 288 290 289 289 289 289 290 290 290 290 291 294 296 295 295 296 295 297 297 296 296 293 292 293 292 292 292 291 290 290 290 291 290 289 290 289 290 290 289 289 289 289 290 291 292 293 293 294 292 292 293 293 294 295 296
287 283 287 289 290 290 289 290 289 287 284 287 285 286 284 285 287 290 288 289 290 288 284 286 285 286 289 290 289 288 289 290 290 291 290 289 290 290 290 289 291 291 292 293 293 295 294 296 297 294 296 295 294 293 293 293 293 292 291 290 290 290 291 290 291 291 289 290 290 290 290 290 288 290 291 292 295 294 292 292 292 292 292 293 292 294
284 286 288 291 290 288 289 288 287 285 287 285 284 283 281 285 283 281 287 287 289 286 283 285 283 285 289 290 289 289 290 290 294 294 294 293 290 289 289 290 290 291 291 291 291 292 292 293 293 293 294 295 295 294 293 294 292 292 294 291 290 291 291 291 291 294 291 292 291 291 291 291 291 290 290 289 289 290 291 290 291 291 291 292 292 293
284 289 292 290 289 288 286 286 283 283 284 284 285 281 281 282 279 280 282 286 288 290 289 285 283 283 287 286 286 289 290 292 292 292 292 291 292 292 293 292 293 291 291 291 291 292 292 292 292 292 293 294 295 295 294 294 293 295 292 292 291 290 291 291 292 291 292 291 288 290 290 290 290 289 288 288 288 289 290 290 290 290 290 291 292 292
287 291 292 290 290 290 287 283 280 278 283 282 280 282 281 282 280 282 285 284 281 281 286 283 279 282 284 285 285 287 287 287 289 287 286 289 290 290 290 291 292 294 293 292 291 292 291 291 292 292 292 293 293 294 295 295 294 292 292 292 291 291 291 290 291 291 292 290 288 288 287 287 285 285 286 286 287 288 288 288 289 290 290 290 290 291
288 293 291 285 288 288 288 282 284 283 280 281 280 283 285 283 282 282 283 282 280 279 281 284 277 276 282 283 286 286 287 287 289 288 287 289 290 290 292 292 291 292 292 293 293 292 292 291 291 292 291 292 292 294 296 295 294 294 293 292 291 291 290 292 291 291 292 289 289 289 287 287 286 285 286 287 287 288 288 289 289 289 289 290 290 290
289 290 288 286 286 286 284 283 285 284 280 280 282 285 284 282 282 283 283 279 279 283 281 280 280 276 277 283 287 288 287 286 288 289 289 290 290 291 291 291 292 292 291 292 292 292 293 292 292 291 291 292 292 293 295 295 295 295 294 293 292 291 292 290 291 291 291 290 289 289 287 290 287 286 286 287 286 287 289 288 288 289 288 289 289 289
288 288 286 285 284 283 281 282 285 286 282 283 286 286 284 284 284 283 280 279 281 278 280 279 278 277 277 281 286 286 283 286 287 288 288 289 290 290 291 291 292 292 292 292 291 291 292 292 293 292 291 292 293 295 295 294 294 294 294 294 293 292 291 290 291 292 290 292 290 289 288 287 289 289 289 289 288 287 288 287 287 287 287 288 289 289
287 287 286 288 285 281 284 285 286 287 281 287 288 287 286 285 284 284 281 281 282 278 279 276 277 276 276 281 284 285 284 284 286 287 288 289 290 290 291 292 292 291 292 293 292 291 292 293 293 293 293 292 292 295 296 295 294 294 293 293 293 292 291 291 290 291 290 290 291 288 288 288 288 288 288 287 287 286 287 286 286 286 287 287 287 288
288 291 293 288 283 287 285 286 287 286 286 289 286 283 283 283 280 281 280 280 279 277 278 277 278 278 274 281 282 280 281 286 286 287 288 290 290 291 291 291 292 291 291 291 291 292 292 293 294 294 292 292 293 295 295 295 295 295 295 293 292 292 292 291 290 290 290 290 290 289 289 288 287 287 287 286 287 286 286 286 286 286 287 287 287 287
290 289 289 289 290 290 288 287 288 286 287 286 283 282 281 281 281 279 281 280 276 280 278 279 278 281 275 280 284 286 287 287 287 286 287 287 288 290 291 291 291 291 291 291 291 291 292 292 293 294 293 292 292 293 293 294 295 295 295 294 293 292 292 292 291 290 290 290 290 290 290 289 288 288 287 286 286 286 285 285 285 285 286 285 288 287
286 286 286 289 291 288 286 284 287 286 285 282 282 283 280 282 281 279 281 277 280 278 278 278 281 278 276 281 285 286 287 288 289 289 289 288 288 289 289 291 290 291 291 291 290 291 293 292 292 292 292 292 292 292 293 293 293 294 294 294 293 292 292 292 291 290 290 289 288 289 289 289 290 288 289 287 286 287 286 285 285 285 284 285 286 286
285 285 289 289 289 291 288 283 281 282 284 284 280 278 280 276 276 273 277 280 280 279 279 277 281 277 282 285 287 286 288 288 289 290 290 290 289 289 289 290 290 291 291 291 291 291 292 292 292 293 293 292 292 292 292 292 292 293 294 293 293 293 293 292 291 290 290 289 289 289 289 289 289 288 288 287 286 287 286 287 287 286 285 285 285 286
282 283 285 285 283 287 287 283 283 281 281 282 284 281 280 279 276 273 276 273 274 278 280 280 277 278 278 282 287 287 287 290 288 289 290 290 290 289 289 290 290 290 290 292 292 292 292 293 292 292 293 292 292 293 292 292 292 292 292 293 293 292 292 292 291 291 290 290 290 289 289 289 288 288 287 287 288 286 287 287 286 286 286 287 286 286
284 284 285 288 286 287 285 287 287 283 281 281 284 285 281 277 279 278 279 278 274 274 275 277 277 279 281 287 288 288 287 288 289 289 289 289 289 289 290 290 290 291 291 292 292 292 292 292 292 293 293 293 293 293 292 292 292 292 293 293 293 293 292 292 293 291 291 290 290 289 289 289 290 290 289 288 288 286 287 287 286 286 286 286 286 286
283 282 286 287 288 285 284 287 287 284 282 282 284 280 279 281 279 278 275 274 275 273 273 281 281 284 284 285 287 287 287 286 288 288 288 288 289 290 289 290 290 291 291 291 291 291 291 291 292 293 292 292 293 292 293 293 293 293 293 293 292 292 292 293 293 292 291 291 290 289 289 289 288 288 287 287 287 288 287 287 286 286 286 286 286 288
280 281 286 286 285 285 286 286 286 287 285 282 281 280 283 282 281 277 276 275 276 275 277 280 278 280 281 280 284 286 284 285 286 287 289 288 289 289 289 290 291 291 291 291 291 291 292 292 292 293 293 293 294 293 293 293 292 293 293 292 292 292 292 292 293 293 292 291 290 290 290 289 289 289 288 288 288 288 287 287 287 286 287 286 287 287
283 280 283 284 285 286 287 286 285 288 287 284 282 282 281 279 278 280 277 272 270 271 275 279 279 280 281 281 280 282 283 285 286 287 287 288 289 289 289 289 290 290 291 291 291 291 292 291 292 292 293 293 293 293 293 294 294 293 293 293 293 293 292 292 293 292 293 292 292 292 291 290 290 289 289 289 289 288 288 287 287 286 287 287 287 288
284 280 283 283 284 286 285 282 282 282 285 281 285 282 281 280 277 276 277 276 277 272 274 275 278 277 284 282 283 285 285 287 286 286 287 288 288 289 288 289 290 290 291 291 291 291 292 292 292 292 292 292 293 292 293 293 293 293 293 293 293 294 293 292 292 293 292 292 292 292 291 291 290 290 290 289 289 288 288 288 288 287 287 287 287 287
282 283 280 282 280 283 282 281 280 280 281 282 280 281 281 280 278 278 278 276 276 273 274 272 272 278 284 286 287 287 287 287 287 288 288 289 289 289 288 289 290 290 291 291 291 291 292 292 292 292 292 293 292 292 292 293 293 293 293 293 293 293 293 293 293 292 292 292 292 291 291 291 290 290 290 289 289 289 288 288 288 288 288 286 287 286
281 282 280 282 282 282 280 280 280 281 281 281 279 280 280 278 278 275 275 273 274 275 273 272 273 279 287 287 288 287 288 288 289 288 288 288 289 289 289 289 289 290 290 291 291 291 292 291 292 292 292 292 292 292 292 293 293 293 293 294 294 293 293 293 293 293 293 292 293 291 292 291 291 291 290 289 289 289 289 288 288 288 286 287 287 287
282 279 280 279 281 281 280 281 282 282 280 276 279 280 280 280 278 278 273 274 274 273 273 274 271 276 286 286 287 288 287 287 287 288 287 288 289 289 289 289 290 291 291 291 291 292 292 291 292 292 292 292 292 292 292 292 292 293 293 293 293 293 294 294 294 293 293 293 293 292 292 292 291 291 290 289 289 289 289 289 288 288 287 287 287 287
286 280 279 281 280 280 280 281 281 280 280 280 278 280 280 278 280 278 277 275 274 274 273 273 270 277 287 286 286 286 287 286 286 286 287 288 288 289 289 290 290 290 290 291 292 292 292 292 291 291 291 293 292 292 293 293 293 293 293 293 293 293 293 294 294 294 293 293 293 293 292 291 292 291 290 289 289 289 289 289 289 288 288 288 287 287
279 281 278 276 281 281 279 278 278 276 277 279 280 280 281 281 279 280 278 278 274 275 275 274 271 279 286 284 284 286 286 286 287 288 288 287 289 290 290 290 290 291 291 291 291 292 292 291 291 292 292 292 292 292 293 293 293 293 293 292 293 293 294 294 293 293 293 292 292 292 292 291 291 290 290 290 290 289 290 289 289 289 288 288 288 288
281 280 279 277 274 273 274 276 277 279 279 280 281 281 282 281 280 278 275 275 272 275 277 273 275 282 285 284 286 286 286 286 288 289 290 290 290 290 290 291 291 291 291 291 291 291 291 291 292 291 291 292 292 293 293 293 293 293 293 293 292 292 292 293 292 292 292 292 291 292 291 291 291 291 290 290 290 290 290 290 289 289 289 289 288 288
279 280 278 278 277 279 281 282 284 283 281 279 281 280 281 281 281 281 279 276 274 275 275 279 280 283 284 286 286 287 288 288 289 290 289 289 289 289 289 290 290 291 291 291 290 291 290 290 291 292 292 292 292 291 292 292 293 293 293 293 293 293 293 293 292 292 291 291 291 291 291 291 291 292 291 291 291 291 290 290 290 289 289 289 289 288
278 277 279 277 280 281 283 282 283 283 280 281 281 281 281 281 281 280 277 276 279 277 276 281 282 281 283 286 287 288 289 289 290 289 289 290 289 290 290 290 291 290 290 290 289 290 290 291 292 292 292 293 293 293 293 293 293 293 293 293 293 292 292 294 292 291 290 290 290 290 291 291 291 291 292 292 291 291 290 290 290 290 290 289 288 288
278 276 280 279 279 281 282 282 282 282 281 281 281 281 281 281 280 278 279 281 281 276 277 281 281 280 283 286 287 288 289 289 289 290 290 290 290 290 289 289 289 289 290 289 290 291 291 291 292 292 293 293 292 292 292 292 293 292 292 292 293 292 292 292 290 290 290 289 289 290 291 291 291 291 291 291 292 291 291 291 290 290 289 289 289 289
278 277 279 279 278 280 280 281 281 280 280 281 281 281 282 281 281 281 281 281 281 280 282 282 282 282 284 286 288 289 290 290 291 290 290 289 290 290 289 289 289 290 290 290 291 291 291 292 292 292 292 292 292 292 292 292 292 293 293 293 293 292 293 289 289 289 289 288 289 290 290 290 290 291 291 291 291 291 291 290 290 290 289 289 289 289
277 278 281 277 275 277 281 281 281 280 281 280 281 281 281 281 281 281 281 281 281 281 282 282 281 281 286 288 288 290 290 290 290 289 289 290 290 290 289 289 290 290 290 291 291 291 291 292 292 292 292 292 292 292 293 293 293 293 292 292 291 292 292 289 290 288 287 289 289 289 289 289 290 290 290 291 291 291 290 291 290 289 289 289 288 288
277 277 277 276 275 276 278 278 280 281 281 279 280 281 281 280 278 280 280 282 280 279 280 279 279 280 286 287 288 288 288 287 288 289 290 290 290 290 289 290 290 290 290 291 291 291 291 291 291 292 292 292 292 292 291 292 292 290 291 292 291 292 290 289 287 289 289 289 289 289 289 289 289 288 289 289 290 290 290 289 288 288 288 288 288 288
276 277 277 277 274 275 279 281 280 280 279 279 280 282 282 282 282 281 282 282 283 283 280 276 279 285 287 288 286 287 287 288 288 289 289 289 290 289 290 290 290 290 290 291 291 291 291 291 291 292 292 292 293 293 292 292 290 291 292 291 292 290 289 288 288 289 289 289 288 289 289 288 288 288 288 289 289 289 289 288 288 288 288 288 289 288
277 277 277 278 273 275 277 279 279 278 277 281 285 286 284 282 282 281 281 282 284 284 282 284 286 288 287 288 287 287 288 289 290 291 291 291 291 290 290 290 291 291 290 291 291 291 291 291 292 292 292 292 292 291 292 290 291 292 291 291 290 288 290 289 289 288 288 288 288 288 288 288 288 288 288 288 288 288 288 288 288 289 289 289 288 287
276 275 276 277 274 274 276 278 277 274 279 284 282 284 286 286 286 283 284 284 284 285 285 285 286 287 288 288 288 289 290 291 292 291 291 291 290 290 290 291 291 291 291 291 291 291 291 291 292 292 292 291 291 291 290 291 290 290 289 289 289 288 289 288 289 289 289 288 288 288 288 288 288 288 288 288 288 287 288 288 289 289 289 288 288 288
277 276 278 276 275 276 275 276 274 277 284 287 285 282 282 281 280 281 282 284 286 286 286 284 286 287 288 288 289 290 290 291 291 289 290 292 292 291 290 290 291 291 291 291 291 292 292 291 291 292 292 292 291 291 289 290 290 288 290 288 288 288 287 288 288 288 288 287 288 288 288 288 287 287 287 287 287 287 288 288 288 289 289 288 288 288
278 279 278 276 277 272 275 275 277 282 282 284 282 282 279 280 279 281 278 283 286 286 286 286 287 287 288 288 289 290 289 286 287 289 290 291 292 292 292 292 292 291 291 292 292 293 293 292 291 292 292 291 290 290 290 290 290 289 288 287 288 287 287 287 287 288 288 287 288 288 288 288 288 288 287 287 287 287 287 288 288 288 288 287 287 287
277 275 277 275 275 277 274 272 273 275 274 281 283 283 285 285 285 283 281 282 288 289 289 287 287 288 288 289 288 288 286 287 286 286 290 290 292 292 292 292 292 292 292 292 293 292 291 290 290 290 290 290 289 289 289 288 288 288 287 287 287 286 287 287 287 288 287 288 288 289 288 288 288 287 287 287 287 287 287 287 287 287 287 287 287 286
274 276 276 275 276 275 273 271 271 271 277 284 283 283 284 284 285 285 281 281 287 287 289 289 288 288 288 288 288 287 284 283 285 288 290 290 290 290 290 291 291 292 291 291 291 291 291 292 290 289 288 287 288 289 288 287 287 287 287 287 287 287 287 287 288 288 288 289 289 289 288 288 288 287 287 287 287 287 287 287 287 287 286 286 286 286
273 275 274 273 270 273 273 272 272 275 278 282 282 282 283 284 285 284 278 278 287 288 289 289 288 288 288 288 287 285 283 283 285 290 291 291 291 289 289 290 290 291 291 291 291 291 291 290 288 288 288 289 289 289 288 287 287 286 287 287 286 287 287 288 289 289 289 289 289 288 288 288 288 287 287 287 287 287 287 287 286 286 286 286 285 285
272 273 275 273 274 276 277 273 274 277 283 286 283 282 282 284 283 276 276 283 286 287 288 289 289 289 289 287 285 286 287 290 292 293 293 292 291 292 291 289 290 290 290 290 291 291 291 290 290 289 289 290 290 289 288 287 287 287 287 287 286 287 288 289 289 289 289 288 288 288 288 288 287 287 287 287 287 286 286 286 285 286 285 285 285 284
272 273 275 273 273 274 275 273 275 278 285 287 283 285 284 283 276 276 285 287 288 286 288 290 290 290 289 289 289 289 291 292 292 292 292 291 291 291 291 290 290 290 289 289 289 289 289 289 289 288 288 287 289 288 287 286 287 287 287 287 287 288 289 289 289 289 288 287 287 287 287 287 288 287 287 287 286 286 286 286 285 285 285 284 284 284
277 274 272 271 273 274 274 272 272 272 282 285 284 283 283 280 282 288 287 287 288 289 290 289 290 290 289 289 290 291 291 291 291 291 291 291 291 291 291 290 289 289 290 290 290 289 288 288 289 289 289 289 288 288 287 286 286 287 287 287 288 289 289 289 288 288 287 287 287 287 287 287 287 287 287 287 286 285 285 285 285 285 285 284 284 283
281 278 276 275 278 274 272 272 276 283 283 287 287 282 282 287 291 291 289 290 289 289 289 289 288 290 290 290 290 290 290 290 290 290 290 291 290 290 290 289 288 287 288 288 288 288 287 288 288 288 289 288 287 287 287 286 287 286 287 287 290 289 288 288 288 287 287 286 286 287 287 286 286 286 286 286 285 285 285 285 284 284 284 284 284 283
284 283 284 281 282 282 278 280 284 284 285 288 290 292 289 289 291 292 290 291 291 291 290 288 290 291 290 290 289 289 289 289 289 290 289 290 290 290 290 290 290 289 289 289 289 288 287 288 288 288 288 288 288 287 287 286 286 286 286 288 288 288 288 288 287 286 286 286 286 286 287 286 286 285 286 286 285 285 285 284 284 284 284 283 283 283
284 288 282 282 283 285 288 288 289 288 286 287 289 291 292 292 291 290 289 289 290 292 292 292 292 291 290 289 289 288 288 290 289 290 289 290 290 290 289 289 289 288 287 287 288 287 288 288 287 287 287 288 288 287 287 287 286 286 288 288 288 287 287 287 286 286 286 285 286 286 286 285 285 285 285 285 285 285 285 285 284 284 284 283 283 283
282 284 283 282 281 281 281 286 289 289 291 290 289 291 291 292 293 292 291 292 293 293 293 292 292 292 291 290 289 289 290 290 288 289 289 289 289 288 288 289 289 288 288 288 288 288 288 287 288 287 287 287 288 287 287 287 287 287 288 288 287 287 286 286 285 285 285 285 286 286 285 285 285 285 285 285 285 285 285 285 284 284 284 284 284 284
282 286 283 285 284 283 284 286 288 290 289 290 291 291 291 292 292 292 293 293 293 293 292 292 291 290 289 288 289 288 289 289 288 288 289 289 289 289 289 289 289 289 288 287 288 288 287 287 287 287 287 287 288 288 287 287 288 288 287 287 285 285 285 285 285 285 285 285 285 285 285 285 285 285 285 285 285 285 285 285 284 284 284 284 284 283
285 285 281 282 282 285 286 287 288 288 288 289 290 291 293 293 293 292 292 292 292 291 291 290 290 291 290 290 289 288 288 288 288 288 288 289 289 288 289 289 289 289 288 288 287 287 288 288 288 287 286 287 288 287 287 287 288 288 286 286 285 284 285 285 285 285 285 285 285 285 285 285 285 285 285 285 285 285 285 286 285 285 285 286 285 285
283 282 284 281 282 281 282 285 285 282 284 287 288 290 291 292 291 291 291 290 290 289 289 288 289 289 289 289 289 288 288 289 288 287 288 288 289 289 288 288 289 288 288 288 288 287 287 287 287 287 287 287 287 287 287 287 288 288 285 285 285 284 285 285 285 284 285 285 285 285 285 285 285 285 285 285 285 285 285 285 286 286 286 286 286 285
285 287 286 283 283 284 287 288 289 289 289 290 292 294 291 289 289 289 289 290 290 290 290 289 289 289 289 288 288 288 288 288 288 288 288 288 289 290 289 288 289 289 289 288 287 287 287 287 287 286 286 287 287 286 287 287 288 287 285 285 285 285 285 285 284 285 285 285 285 285 285 285 285 285 285 285 285 285 285 285 286 286 286 286 286 286
Wind_Speed
3 11 7 3 4 6 6 5 5 6 3 4 2 2 2 2 0 2 3 2 2 3 4 5 4 4 4 5 1 3 1 2 4 2 1 2 0 1 2 2 3 4 4 3 4 3 2 3 3 0 0 2 4 1 3 4 5 5 6 5 6 5 4 4 5 5 6 7 7 5 6 7 8 8 9 9 8 7 6 10 13 13 11 12 13 13
3 13 6 3 2 3 5 4 4 7 3 3 3 3 2 2 1 1 1 1 1 2 3 1 3 5 5 5 4 4 3 4 1 1 1 4 4 3 3 3 4 3 4 4 5 5 4 4 4 2 1 2 3 3 4 3 4 5 6 5 5 6 5 4 4 4 5 5 5 4 5 4 5 7 8 9 10 10 8 9 9 10 10 10 10 10
11 7 3 3 3 3 6 3 3 3 3 5 2 3 2 1 4 0 4 1 1 1 5 5 8 10 7 7 3 4 4 0 1 1 0 0 2 3 3 3 4 4 4 4 4 4 4 4 3 4 1 2 2 3 5 2 3 5 5 5 4 6 6 5 4 4 4 4 5 5 4 5 5 3 6 6 6 7 8 9 9 9 8 8 8 8
6 3 4 2 2 3 1 6 5 2 3 2 4 2 2 3 3 1 1 3 3 1 3 5 8 11 8 6 4 3 2 1 4 2 0 0 1 2 3 2 4 2 4 4 4 5 4 4 3 4 3 1 1 4 4 2 3 4 4 5 4 5 5 4 5 5 4 5 4 6 5 4 4 3 5 5 7 9 10 11 9 10 10 10 10 10
5 2 1 2 2 3 3 3 9 5 1 4 3 1 2 3 2 1 4 6 8 2 2 7 7 5 3 2 2 2 2 2 1 2 2 3 3 2 4 5 0 2 2 3 4 4 4 4 4 4 4 2 2 3 4 2 2 3 5 5 4 5 5 3 5 5 5 5 4 6 5 3 2 1 3 4 9 9 9 9 10 10 9 10 10 11
4 1 0 3 3 3 2 1 5 4 2 1 0 0 1 2 3 4 5 7 3 1 1 3 5 0 1 4 3 3 2 2 4 5 4 4 3 5 4 1 2 2 1 1 3 4 4 4 4 4 4 4 3 3 2 2 3 4 4 4 4 4 5 4 3 5 4 5 4 6 7 8 6 6 6 7 7 7 8 9 7 9 10 10 10 10
2 0 1 1 3 3 0 2 1 1 2 1 1 2 2 2 3 4 5 3 2 2 2 0 3 5 0 2 2 4 3 5 3 6 4 2 2 2 1 1 2 2 2 2 2 2 3 4 4 4 4 3 4 2 1 2 4 4 5 4 4 4 4 4 2 4 4 4 4 5 4 5 6 7 4 3 3 3 3 4 6 6 7 8 9 9
2 4 6 2 1 1 1 1 1 2 1 1 1 3 2 3 2 2 2 2 3 0 1 3 2 1 3 1 1 2 0 3 4 3 4 4 1 1 0 1 1 1 1 2 3 3 2 1 2 4 4 3 3 4 1 2 3 4 5 5 5 4 4 4 2 4 4 4 4 5 4 4 5 6 6 5 4 4 4 5 4 4 5 6 6 7
3 3 4 5 4 3 1 2 2 1 0 1 1 2 2 1 3 3 0 2 2 1 1 2 0 1 2 1 2 2 1 3 1 3 4 3 2 2 0 1 1 1 0 1 4 4 3 2 2 3 4 4 4 2 1 3 3 4 4 5 5 6 4 4 1 2 4 3 4 4 3 4 4 4 6 6 5 5 4 5 5 4 4 4 4 5
1 1 1 3 1 3 2 3 2 2 1 1 2 2 2 1 1 2 2 2 3 2 1 1 2 1 4 0 1 1 2 2 2 3 3 3 1 1 1 0 1 1 0 0 2 4 4 2 1 3 3 4 4 2 1 2 3 3 4 4 5 6 5 4 2 1 2 2 3 4 4 4 4 4 5 5 5 5 5 5 6 4 5 5 5 5
2 1 1 1 1 2 3 4 2 4 4 2 3 1 2 1 1 1 2 2 2 0 0 0 2 1 3 1 4 2 2 1 1 2 2 1 1 1 2 2 1 1 1 1 2 4 4 4 2 1 3 4 3 1 3 4 3 3 4 4 5 6 6 5 4 2 2 1 1 1 2 3 4 4 4 4 4 4 5 5 5 6 4 5 6 5
1 1 0 0 2 3 3 4 3 1 1 1 2 2 1 1 0 0 0 1 2 0 0 1 1 2 1 1 2 2 3 3 2 2 3 3 4 3 3 3 3 3 3 3 3 4 4 4 4 2 3 3 3 2 3 3 3 3 4 4 5 6 5 5 4 4 4 3 1 2 1 1 3 2 2 4 4 3 4 4 4 5 4 4 5 5
0 1 0 1 2 2 3 3 2 0 1 1 3 1 2 1 1 2 1 3 0 1 1 0 2 0 4 3 4 4 4 3 2 1 1 2 3 3 3 3 3 3 4 4 4 4 4 4 5 4 4 4 4 4 4 4 4 3 4 4 4 6 5 5 4 4 5 5 4 3 2 1 1 2 1 2 3 1 2 4 4 5 5 4 4 4
1 3 2 1 1 2 5 3 6 2 4 7 5 5 3 4 4 1 3 2 0 1 2 3 3 1 2 1 1 4 3 4 1 2 1 0 2 3 3 4 4 5 5 5 4 3 4 4 5 5 4 4 4 4 4 4 4 4 4 4 4 5 5 4 4 4 4 5 5 5 3 3 2 2 2 3 3 1 1 0 0 2 3 4 2 2
3 2 2 3 2 5 3 3 0 2 4 4 0 2 1 2 1 1 2 2 4 5 2 0 0 1 3 2 2 4 4 1 2 1 1 2 3 4 4 4 5 4 4 2 2 3 4 4 4 4 4 4 4 5 5 4 4 4 5 4 5 5 5 4 5 4 5 5 5 5 4 4 4 4 3 4 3 2 1 1 1 1 1 0 0 1
1 1 1 3 2 3 3 1 1 1 2 4 3 0 2 0 1 1 1 1 3 5 7 0 2 3 2 0 2 2 2 2 1 3 3 3 4 4 4 4 4 4 4 3 4 4 4 4 4 4 4 4 5 5 5 5 4 5 5 5 5 5 5 5 4 5 5 6 4 5 5 5 4 4 4 4 4 4 3 3 3 3 2 3 2 2
3 2 1 0 3 1 1 2 1 1 3 3 3 3 1 1 0 1 1 1 1 2 6 2 3 2 1 1 1 0 0 3 3 3 3 3 2 1 4 5 4 4 4 4 4 4 5 4 4 4 4 5 4 5 5 6 5 6 6 5 6 6 5 6 6 6 5 5 5 5 5 5 5 5 5 6 5 4 3 3 3 3 5 4 3 3
0 5 1 1 1 0 0 1 1 2 1 2 2 1 1 2 2 1 1 1 0 1 2 2 3 5 2 3 1 1 2 4 5 2 0 3 3 2 3 3 3 4 4 4 5 5 5 4 4 4 4 5 5 5 5 6 5 5 5 6 6 6 7 7 6 6 6 6 6 6 6 6 6 6 6 6 6 5 4 4 4 4 5 4 4 4
1 3 1 1 1 1 1 1 1 0 2 2 1 1 1 0 2 1 1 3 3 4 4 3 3 4 3 2 0 3 3 5 4 3 3 2 1 1 3 3 4 4 4 4 5 5 5 5 5 5 5 5 5 5 5 6 6 5 5 5 6 8 8 8 6 5 6 6 6 6 7 6 6 6 6 6 5 5 5 6 5 5 6 5 4 4
0 0 2 1 1 0 0 0 1 1 2 2 2 1 0 1 2 1 0 1 1 4 4 7 2 4 0 1 3 1 6 2 3 2 2 2 3 3 4 3 4 5 4 5 5 5 5 5 5 5 5 5 6 5 5 5 5 6 6 6 7 7 7 6 7 6 6 6 6 6 5 6 6 6 7 6 6 6 7 6 6 6 5 6 4 4
1 2 2 1 3 2 1 3 1 2 0 1 1 0 1 1 1 1 1 0 1 0 1 3 7 3 1 1 0 1 2 3 2 2 3 4 4 5 5 4 4 5 5 5 5 5 6 6 6 6 5 5 5 5 5 5 6 7 6 6 7 8 8 8 8 6 7 6 7 7 8 8 7 8 7 6 6 7 7 7 6 7 7 4 6 5
0 1 1 4 4 0 0 1 2 2 1 0 1 1 1 2 3 3 3 1 1 0 1 1 9 8 7 1 1 2 0 1 1 2 4 6 6 5 5 5 5 5 5 6 5 5 6 6 6 6 5 5 5 5 6 6 6 6 6 7 6 6 7 7 8 7 8 6 7 8 8 9 7 7 7 7 7 8 8 7 7 7 5 6 7 6
1 1 1 5 3 1 1 1 1 0 1 1 0 1 2 1 1 0 2 1 1 1 0 0 1 11 4 1 0 0 1 1 2 3 5 6 7 6 6 5 5 5 6 6 6 6 6 6 6 6 6 6 6 7 7 6 6 6 6 6 6 6 8 7 8 6 7 7 7 8 8 7 7 7 7 8 8 8 9 8 8 6 7 7 7 6
1 0 1 4 1 0 1 1 2 2 0 1 1 2 0 0 1 1 1 1 1 0 1 2 2 10 4 1 0 1 1 2 3 5 7 6 6 6 6 5 5 5 5 5 6 6 7 6 6 5 6 6 6 5 6 6 6 6 6 6 6 6 8 7 6 7 6 7 8 8 7 7 7 7 8 9 9 9 10 9 8 7 7 8 7 8
1 0 2 4 2 1 1 0 1 1 1 1 2 3 2 2 3 2 2 2 1 5 5 3 6 7 2 0 3 3 3 4 6 7 6 8 7 6 6 5 5 5 5 5 6 7 7 6 6 6 6 6 6 5 6 7 7 6 6 5 6 7 7 7 6 6 6 6 7 7 7 7 7 8 9 10 9 10 10 9 9 7 9 8 9 9
1 1 1 2 3 4 3 4 3 2 2 2 1 3 3 5 4 1 1 1 2 2 4 3 8 8 1 1 2 4 5 5 5 5 5 3 4 5 5 5 5 5 6 6 7 7 8 7 6 6 6 6 6 6 6 6 6 6 6 7 6 6 6 6 5 5 6 5 6 7 7 8 7 9 10 10 10 10 10 10 9 9 9 9 11 9
0 0 1 3 3 5 3 1 1 1 3 2 1 5 4 4 5 4 2 1 6 3 6 12 8 14 21 14 5 6 4 8 10 7 6 5 5 5 5 5 5 6 6 7 7 8 7 7 8 8 8 7 6 6 6 6 6 6 6 7 6 6 6 7 5 6 6 6 6 6 8 8 9 9 9 9 10 9 8 9 10 9 10 10 10 10
1 1 5 5 7 9 6 7 6 4 6 7 7 6 6 6 6 7 8 7 2 1 10 6 9 9 17 13 10 12 12 11 10 7 7 6 5 6 7 7 8 7 7 6 6 7 8 9 9 8 8 7 7 7 6 6 7 7 7 8 7 6 6 6 5 5 6 6 6 7 9 8 8 8 9 9 9 9 9 9 9 10 10 8 9 10
0 2 1 0 5 6 7 9 9 8 6 7 7 6 5 7 8 11 12 11 2 4 12 4 2 6 17 15 16 15 12 11 11 10 8 6 7 7 7 8 7 7 6 6 7 8 8 8 8 8 8 7 6 7 7 7 7 6 6 7 7 6 7 7 5 6 5 5 6 8 8 7 6 7 8 8 8 9 9 10 10 9 9 8 10 9
1 3 0 0 6 8 12 13 10 8 6 6 9 10 9 8 12 14 13 8 12 14 14 15 16 20 20 20 19 15 12 12 11 7 6 7 9 9 8 8 7 7 7 7 7 7 7 8 8 8 8 8 7 7 7 6 6 6 7 7 7 6 6 5 5 5 5 5 7 7 7 8 7 7 7 7 9 9 8 8 8 9 8 10 10 10
1 2 4 1 2 5 7 7 4 5 4 9 9 9 10 10 10 11 9 10 9 14 17 18 18 21 21 13 10 11 11 8 7 7 8 8 8 8 8 8 7 7 7 8 7 7 6 7 7 8 8 8 8 7 7 6 5 5 6 6 5 6 6 5 6 5 5 7 6 7 7 7 8 7 8 8 8 8 8 9 8 8 9 9 9 11
1 2 1 0 3 5 2 3 5 5 7 10 17 11 11 9 7 8 10 9 9 12 9 5 9 14 17 4 8 7 6 6 8 9 9 8 7 7 7 8 7 7 8 9 9 8 7 7 7 8 8 8 7 7 6 6 6 5 6 6 6 6 5 5 5 5 6 6 7 7 8 8 8 8 9 8 9 9 9 8 8 9 10 10 10 11
3 0 2 2 3 4 0 2 9 11 9 7 9 10 14 12 10 3 6 6 12 12 5 5 12 11 6 1 4 5 6 8 8 7 8 7 7 6 7 9 9 8 8 7 8 9 9 9 7 7 7 6 7 6 6 6 5 6 6 6 6 6 6 6 6 6 7 7 7 8 8 7 8 9 9 8 8 8 7 8 8 9 9 11 11 8
2 0 0 0 1 3 2 9 7 4 5 3 1 1 7 7 12 13 9 12 12 10 10 8 13 10 11 12 10 11 10 10 10 9 6 8 9 8 8 8 9 9 8 7 6 7 7 7 8 8 7 7 7 6 5 4 5 6 6 7 6 6 7 6 7 7 8 7 7 7 7 8 8 8 8 8 8 8 8 8 10 10 9 9 7 8
2 3 1 0 0 5 5 8 3 1 7 1 3 2 0 2 8 14 12 8 8 13 15 16 19 17 17 13 11 12 12 13 10 10 8 6 6 6 8 10 10 10 10 8 7 6 7 7 9 9 9 7 7 6 6 7 6 6 5 6 6 6 6 6 7 8 7 8 8 7 7 8 8 9 8 8 8 8 9 9 9 9 9 8 9 9
5 3 1 1 2 3 2 1 1 7 6 13 4 2 1 4 3 2 8 13 16 14 15 17 20 18 14 14 13 10 10 13 10 5 6 8 7 7 8 9 10 9 10 8 7 9 9 8 9 9 10 7 6 6 5 6 6 6 7 5 6 6 6 7 8 9 7 8 8 8 8 8 8 8 8 8 8 8 9 9 9 10 9 8 8 8
0 0 1 2 2 2 1 1 8 9 14 7 1 0 3 1 3 3 4 8 10 11 14 16 17 14 12 12 13 12 6 5 8 9 6 7 7 6 7 9 8 9 8 8 8 11 9 7 7 8 8 7 6 6 6 6 6 7 7 7 7 6 7 7 8 9 8 8 8 8 8 7 8 8 8 7 8 8 9 9 9 8 6 7 8 8
3 3 1 2 2 2 1 5 3 2 2 6 2 1 0 0 4 3 2 14 5 12 12 13 13 13 11 10 8 8 6 10 15 2 1 2 5 5 6 6 7 7 7 8 11 10 9 7 6 6 7 7 7 6 6 6 6 6 7 7 7 6 7 7 10 8 7 8 8 8 7 7 7 8 8 7 8 9 8 8 7 7 6 7 8 8
4 1 0 2 2 1 1 2 3 2 8 4 1 3 2 0 2 0 2 10 7 4 8 11 11 11 10 9 9 1 4 8 14 12 1 2 3 4 5 6 6 7 8 8 9 11 11 10 7 6 6 7 8 8 5 5 5 5 8 8 8 7 8 10 10 8 7 8 7 7 7 7 7 7 8 8 8 7 8 8 8 7 6 7 7 8
3 0 1 1 3 4 1 2 6 5 8 4 4 4 5 1 1 2 6 7 2 2 9 9 10 9 8 7 6 3 4 8 13 14 6 6 6 5 4 7 8 8 9 9 9 8 9 8 6 6 7 8 9 6 5 5 5 6 8 9 6 8 10 10 10 8 7 7 7 6 7 6 7 7 7 9 8 7 8 7 6 7 7 7 7 8
2 1 4 9 3 6 7 6 3 7 9 8 7 5 6 3 2 2 8 11 4 5 5 8 8 8 7 6 4 8 8 11 13 13 11 8 11 13 6 5 7 7 8 9 11 11 9 9 7 8 8 8 9 7 5 5 5 7 8 8 7 10 11 9 8 8 7 6 6 6 7 7 6 8 8 7 7 7 7 6 7 7 7 8 8 7
1 2 1 1 5 8 5 6 8 7 12 7 1 15 7 3 2 8 10 3 6 5 4 6 7 7 6 8 7 9 11 9 11 11 12 11 10 12 9 7 7 7 6 7 9 8 8 9 9 9 8 6 9 7 5 5 6 8 8 7 10 13 10 8 8 8 6 6 6 7 7 7 7 6 7 7 6 7 8 7 7 8 8 7 7 8
9 7 6 5 4 1 3 3 5 7 4 9 12 4 1 4 10 8 3 2 5 5 6 6 8 8 7 9 9 11 11 10 11 12 12 12 10 11 11 8 7 7 9 9 10 8 7 9 10 11 11 8 6 6 5 5 6 8 8 10 13 11 8 8 8 7 6 5 6 7 8 7 7 7 6 7 6 7 9 8 7 7 7 8 8 8
6 2 3 6 7 6 6 7 10 11 4 14 17 8 9 15 8 5 3 5 5 5 5 5 6 8 8 9 10 10 10 10 12 10 12 12 11 10 9 8 6 6 7 8 8 9 7 9 10 11 11 9 6 6 5 5 7 7 9 13 12 8 8 7 7 6 6 6 6 8 8 7 7 6 7 8 7 7 9 9 7 7 8 8 8 8
12 8 7 6 6 9 11 12 11 3 11 16 14 11 9 17 14 9 6 7 7 9 5 5 8 8 8 8 9 9 12 9 12 11 11 14 12 11 12 12 10 9 9 9 10 8 7 9 12 11 11 11 9 7 6 5 7 8 11 13 7 7 8 7 7 7 7 6 7 9 8 7 7 7 7 7 7 8 9 8 6 8 7 7 7 7
3 11 2 2 8 7 11 9 3 3 6 12 14 11 9 8 8 8 9 10 9 11 8 10 9 9 8 6 9 8 10 11 11 12 12 13 12 12 10 11 9 7 7 7 8 8 8 9 9 9 11 13 10 8 6 6 6 10 13 9 6 7 7 7 7 7 8 7 7 9 8 8 8 6 7 8 7 8 8 8 8 8 8 6 7 7
5 5 4 6 3 2 14 7 19 21 18 12 13 16 14 12 13 8 7 10 12 11 11 10 12 12 10 9 9 12 14 10 11 13 12 12 12 11 11 11 11 9 9 9 9 8 9 8 10 11 10 13 12 8 8 7 7 9 9 8 6 6 6 6 6 8 8 8 8 9 7 8 8 7 7 6 6 7 8 7 7 7 8 7 7 7
8 7 8 15 13 11 20 6 9 10 9 7 10 11 13 15 15 12 13 13 13 12 11 13 10 11 7 10 10 11 14 12 10 12 12 13 12 10 10 11 12 11 8 7 8 8 8 10 11 12 10 12 13 9 9 9 10 8 7 6 5 5 6 7 7 9 9 9 8 8 8 8 9 9 8 7 6 7 7 7 6 7 8 8 7 7
4 6 7 4 7 15 14 15 17 14 12 17 17 12 10 10 11 11 9 11 11 11 12 10 8 11 9 13 10 9 12 14 10 12 13 13 12 10 10 11 11 11 10 8 8 7 10 11 12 11 10 13 11 9 10 11 12 8 6 6 5 5 6 8 7 8 9 8 8 9 7 7 7 7 8 7 6 6 7 8 8 7 8 8 7 7
6 12 6 2 12 15 15 15 4 5 10 8 10 15 15 14 15 15 10 10 11 10 9 8 10 10 11 11 10 10 13 14 11 9 13 13 12 11 10 11 11 11 10 8 7 7 10 11 11 12 11 12 10 9 10 12 13 9 5 5 5 5 7 8 7 7 9 8 8 9 7 7 7 7 7 7 7 7 7 9 12 10 8 9 10 13
15 18 8 14 13 22 7 7 11 13 12 10 15 15 5 5 5 7 8 10 9 8 8 9 11 12 10 10 9 11 12 12 14 10 12 12 13 11 10 10 12 11 10 8 8 9 9 11 11 10 11 12 9 10 10 11 13 9 5 5 6 6 8 6 7 8 8 8 8 8 7 7 7 7 6 7 7 7 7 8 7 10 14 15 15 15
Wind_Direction
13 71 42 32 348 358 353 360 336 318 307 309 259 315 340 315 85 135 98 359 359 313 242 257 315 290 274 265 202 140 125 212 234 219 240 237 198 260 296 7 12 354 341 324 318 354 10 33 350 168 229 274 291 285 321 321 321 319 327 326 337 326 339 345 356 354 349 340 338 346 349 344 340 342 337 342 348 360 5 5 5 9 8 13 19 20
51 69 24 40 351 340 328 326 323 323 308 329 324 281 275 170 312 107 85 67 17 43 306 262 276 272 280 289 208 143 146 246 205 26 354 7 344 327 322 15 4 348 328 340 345 346 357 14 351 3 266 275 313 324 308 307 305 312 326 327 332 329 335 343 5 357 347 328 326 326 320 327 324 338 346 343 347 348 351 10 19 11 2 16 27 23
47 64 34 13 350 324 269 287 281 304 325 291 273 303 321 349 309 147 92 89 306 336 259 330 328 286 278 276 192 156 197 195 106 111 352 355 304 307 352 348 353 332 316 328 337 335 340 354 343 352 338 324 345 312 296 277 325 327 326 322 334 324 326 335 355 2 348 320 324 342 322 351 333 322 341 334 326 333 358 10 15 18 15 15 23 34
58 51 358 341 311 315 287 33 348 286 258 352 355 8 353 2 12 314 73 350 341 300 301 310 291 287 280 248 183 172 173 159 113 124 223 272 299 311 319 319 286 308 342 336 331 324 328 333 339 344 332 314 308 297 300 326 332 321 315 312 331 322 319 337 350 349 338 321 328 337 330 339 2 341 346 346 352 3 6 10 7 19 17 17 23 23
97 332 323 357 275 261 317 24 25 4 155 13 54 43 329 13 321 222 308 324 292 243 259 284 267 284 223 195 189 201 150 106 178 161 223 223 193 255 262 267 168 359 350 333 331 325 328 331 339 326 312 344 333 297 297 338 306 301 300 312 325 323 316 343 349 342 334 336 356 334 326 326 357 352 11 4 10 4 359 2 10 11 16 20 22 20
72 96 240 273 265 241 272 19 13 29 342 106 73 355 282 292 301 301 305 323 350 294 312 33 357 311 210 203 201 153 97 246 190 161 234 249 197 199 248 151 59 6 20 355 327 311 309 327 329 330 329 349 317 308 343 332 293 279 290 305 319 318 319 338 350 333 341 337 358 346 354 353 6 2 3 19 13 1 5 3 348 6 16 19 23 23
49 125 215 298 303 326 7 94 310 10 310 286 253 269 347 294 266 287 300 20 324 346 290 345 85 286 340 266 222 137 188 245 153 174 203 190 160 240 285 43 54 350 342 332 297 305 318 322 330 319 328 319 317 313 334 315 296 295 285 281 298 308 311 319 349 344 342 347 355 343 6 350 357 353 340 349 0 15 354 7 8 5 9 20 26 21
326 17 352 339 282 283 70 25 40 32 318 278 223 276 310 254 273 264 270 181 249 223 320 45 63 230 316 294 132 105 330 290 279 165 161 144 184 208 292 18 48 325 337 315 300 286 280 288 303 307 304 311 307 296 330 313 301 295 295 303 302 294 298 304 348 346 336 352 343 340 11 360 353 355 336 340 360 351 357 13 7 18 17 18 32 28
79 357 356 358 353 53 68 218 302 42 189 256 209 358 290 301 295 314 81 277 250 48 320 337 354 74 244 271 27 73 325 277 79 96 132 163 178 167 258 26 328 287 272 334 311 308 300 284 275 286 305 291 285 284 300 288 282 288 296 294 295 293 287 283 343 331 332 345 340 338 17 0 338 352 335 330 357 0 353 5 347 16 20 28 33 44
287 129 287 286 24 2 265 291 244 204 245 63 316 187 262 337 321 306 352 299 282 55 279 304 312 55 293 289 201 273 249 305 25 74 115 126 136 131 217 223 252 262 222 272 290 292 295 275 261 240 252 279 271 225 219 253 265 272 273 277 279 282 286 284 295 302 310 333 339 349 1 353 333 349 331 339 354 353 346 359 351 353 14 19 18 26
151 299 279 219 47 279 283 270 243 204 223 34 31 358 251 241 250 214 226 286 350 19 232 257 327 36 296 248 199 168 224 128 341 18 33 67 127 196 179 214 238 267 287 287 288 289 290 284 255 239 258 260 277 238 217 242 240 250 266 272 278 271 276 282 290 296 276 263 266 319 327 332 331 336 339 353 340 356 341 0 347 351 7 21 19 17
157 205 278 105 222 299 232 295 174 181 347 10 264 263 187 258 163 187 247 156 61 334 247 173 228 14 163 314 38 100 97 54 76 23 11 10 347 5 6 352 349 328 313 300 302 290 294 307 298 277 284 287 279 279 272 252 242 238 245 255 272 284 277 265 267 288 291 283 258 234 241 283 285 330 340 337 324 346 338 346 354 335 6 17 27 12
166 37 275 258 153 65 339 269 238 11 178 222 237 237 34 356 60 10 167 6 112 271 238 159 332 3 239 243 137 124 128 105 75 89 38 347 323 333 332 317 302 305 293 281 269 266 272 274 269 276 266 272 273 265 254 257 250 244 250 246 258 275 278 265 248 260 278 295 285 257 233 237 250 270 271 279 295 311 352 342 357 347 351 353 28 12
258 320 324 265 32 359 351 43 335 357 340 348 33 344 37 19 28 344 335 259 33 300 205 156 219 216 237 120 118 126 100 126 107 126 210 85 270 282 287 291 294 286 267 260 247 244 255 258 262 253 255 253 256 257 259 257 253 251 248 250 247 258 262 269 247 241 261 272 279 287 275 239 231 251 243 239 244 250 202 224 57 318 342 332 20 42
11 353 352 2 351 316 44 56 147 229 312 313 217 62 122 80 95 355 21 335 256 267 280 289 47 245 0 238 91 112 122 113 159 212 187 221 241 249 252 259 269 278 282 274 268 263 259 265 266 267 257 259 257 253 255 256 250 250 254 256 261 266 267 249 243 240 245 253 258 266 270 269 250 238 234 240 229 213 201 222 201 196 200 305 303 115
153 216 278 348 219 318 20 169 204 318 289 257 279 174 38 137 268 195 247 276 312 346 327 296 200 181 179 147 103 122 111 245 215 233 224 246 246 242 254 263 266 269 277 278 273 276 272 260 261 269 269 260 254 255 255 252 246 242 243 243 247 250 253 250 242 235 236 246 239 238 242 250 259 266 266 266 261 239 200 213 214 239 214 197 173 191
3 266 212 166 314 32 93 314 63 141 55 307 18 42 219 218 88 330 51 17 89 73 253 242 324 352 329 326 152 201 198 237 188 252 228 260 257 254 266 263 261 263 273 279 282 279 280 290 283 257 256 264 265 265 258 249 236 232 235 236 247 252 253 245 230 230 230 239 242 244 235 230 235 246 251 251 256 255 229 208 223 228 243 223 188 195
153 272 104 291 305 174 346 10 286 319 102 314 43 220 105 67 103 112 338 299 282 303 276 9 313 300 3 295 323 175 242 217 201 219 285 266 247 252 275 270 273 279 277 285 292 288 283 277 271 270 255 244 245 247 255 258 253 244 236 232 240 248 248 248 237 227 221 225 233 243 243 235 224 226 234 236 246 255 256 245 227 233 247 233 226 221
78 321 310 299 206 108 23 358 329 255 150 82 160 186 75 307 5 296 128 348 2 326 297 285 316 274 200 245 335 239 223 209 196 191 227 262 284 267 275 288 293 295 310 302 292 294 293 279 271 266 261 254 246 245 246 250 250 253 249 240 235 244 242 239 234 228 219 209 218 225 231 234 238 232 231 231 230 230 235 240 233 225 227 233 220 207
337 47 311 299 347 281 85 63 41 323 355 345 9 7 355 114 152 299 192 230 121 265 4 292 11 263 253 176 227 194 202 168 156 225 233 264 266 271 274 277 291 288 280 284 282 279 279 279 269 264 265 268 262 257 253 254 259 255 249 244 245 247 252 253 245 234 227 220 214 227 228 236 232 233 231 232 227 230 230 231 227 231 236 230 219 210
334 103 296 285 313 6 350 11 75 21 30 352 10 75 2 85 216 143 271 149 163 217 265 303 318 282 243 255 147 85 127 162 157 217 263 265 269 276 276 277 273 276 276 270 271 271 273 278 280 275 267 262 265 263 261 256 252 251 250 248 243 242 248 247 245 236 234 225 225 221 225 229 228 233 230 234 230 234 238 236 230 229 228 221 228 213
346 328 263 318 343 307 138 38 1 354 31 97 106 81 140 353 353 16 293 32 353 105 267 325 275 282 282 168 311 106 160 115 209 217 259 277 276 274 279 280 272 272 267 261 264 266 270 273 276 276 275 271 269 272 270 258 246 247 244 241 246 245 245 244 248 236 236 229 224 220 226 227 224 227 227 228 231 233 238 239 234 233 227 225 230 211
128 234 336 290 237 262 101 131 318 54 202 174 170 108 27 148 144 137 282 298 358 251 129 195 1 275 256 271 119 112 123 263 243 226 249 264 273 277 273 265 266 255 255 264 263 267 265 260 261 263 262 263 257 257 259 262 250 246 245 244 242 236 247 236 240 239 236 231 227 229 227 224 223 221 223 224 230 232 234 235 237 227 225 230 232 225
32 70 302 260 63 81 155 189 177 44 348 6 280 279 334 139 171 155 140 151 247 208 110 32 247 260 276 305 308 267 225 275 283 257 252 257 265 274 274 278 275 280 274 265 265 268 263 259 260 267 272 268 263 255 251 252 254 250 244 240 238 239 247 248 243 242 239 235 234 233 232 228 227 220 220 221 226 229 233 232 233 225 225 230 229 229
62 236 141 289 302 311 20 37 335 321 33 259 234 190 184 96 67 108 85 48 336 218 186 151 243 263 280 272 295 304 269 266 265 265 239 258 273 271 279 284 284 279 279 279 274 271 274 276 271 262 257 258 261 257 252 252 253 252 253 245 238 238 238 240 241 239 240 234 240 242 237 239 232 229 226 225 225 228 231 231 230 225 224 226 230 229
141 282 55 18 9 351 331 318 297 310 233 211 204 134 201 145 154 105 124 143 159 281 165 198 256 251 271 26 284 257 253 269 271 287 302 273 288 296 299 294 289 287 278 276 280 284 277 267 265 268 265 259 252 246 245 248 250 256 258 255 242 243 245 244 242 237 239 236 236 244 243 243 239 236 233 232 231 230 229 228 226 225 226 220 228 230
62 352 203 207 199 228 237 249 162 93 327 284 216 165 198 198 182 168 68 194 212 201 208 237 231 290 295 279 287 293 313 309 307 312 306 306 296 291 283 278 271 263 265 271 273 274 282 286 273 264 261 253 252 250 248 249 256 258 261 264 259 245 241 243 235 235 234 238 236 244 246 242 239 236 238 238 237 237 233 229 226 223 226 223 223 225
61 339 247 218 243 245 271 276 275 333 277 272 274 259 196 182 186 186 178 211 161 106 273 242 227 235 261 286 301 303 304 303 301 297 300 298 289 284 281 277 271 270 268 266 268 271 271 270 274 273 267 266 261 256 253 248 246 250 253 260 263 254 245 247 233 237 236 236 243 245 251 250 249 247 244 243 240 238 236 234 230 226 227 223 222 224
176 210 319 244 263 277 277 278 282 285 259 258 259 265 245 199 188 198 221 216 231 181 235 235 336 293 278 282 283 284 286 285 287 290 283 283 293 293 290 287 282 275 273 270 266 266 266 270 268 271 272 266 265 264 260 260 260 258 257 256 258 257 251 245 235 243 241 242 245 251 254 259 258 255 254 250 248 242 237 234 232 230 227 222 225 225
74 234 236 198 278 274 272 268 264 250 263 262 250 244 239 219 215 214 231 215 218 241 251 274 283 274 271 273 275 278 282 279 279 280 292 295 285 282 280 282 286 291 293 288 281 271 267 266 269 269 271 275 273 271 270 267 263 259 256 260 259 256 259 252 247 246 253 250 253 259 260 259 259 258 256 255 251 248 244 240 236 231 230 229 228 228
114 289 139 221 282 275 266 254 268 247 248 265 249 233 232 228 237 232 235 236 226 256 259 259 269 277 272 258 268 267 262 270 287 284 269 268 274 274 276 281 288 294 298 299 297 292 283 277 274 275 276 274 273 270 271 273 273 278 279 275 275 276 276 267 261 253 244 252 256 259 261 261 260 257 257 253 254 253 249 245 241 238 237 236 233 233
117 257 86 81 342 298 1 15 289 270 254 254 272 244 227 217 231 234 222 219 192 228 243 266 265 261 267 271 226 245 261 261 263 272 278 272 264 268 274 279 287 294 298 297 298 301 301 297 289 284 279 277 276 278 282 287 289 296 290 288 287 283 292 291 268 260 259 256 262 263 262 259 259 259 257 255 253 252 251 250 247 242 238 238 239 236
183 168 344 8 341 260 278 312 322 316 312 301 271 241 211 208 214 261 253 228 212 207 227 221 242 235 266 290 327 289 288 282 279 271 279 288 281 274 275 282 286 288 288 289 295 301 301 298 293 288 288 287 285 285 280 284 301 295 288 293 285 296 299 291 278 269 268 267 264 264 263 263 261 260 262 260 260 262 263 258 254 252 248 244 242 243
124 174 249 203 199 262 356 339 321 351 321 247 254 236 137 181 200 221 239 221 222 171 218 213 248 287 299 292 287 287 289 278 275 271 247 260 280 287 287 286 287 286 284 280 279 285 289 294 299 298 293 291 290 286 287 302 292 283 282 285 294 294 285 284 280 267 266 266 264 264 263 263 264 264 262 263 262 260 259 256 253 251 250 252 249 241
159 131 229 98 272 281 324 334 9 271 243 214 253 264 47 205 191 212 235 246 227 221 240 262 262 263 264 272 274 276 277 279 272 270 279 268 260 267 277 284 284 283 278 280 285 287 291 293 295 299 301 300 297 301 316 308 294 290 295 289 290 282 283 280 277 276 271 270 269 266 266 264 263 263 264 262 261 260 257 256 259 257 255 251 246 245
155 151 175 309 201 313 3 286 353 236 285 302 309 84 13 74 59 26 286 244 240 223 221 238 253 257 266 276 278 269 273 281 288 262 257 263 255 259 269 270 271 270 273 267 281 294 297 294 289 291 293 292 300 297 295 287 291 298 286 285 279 283 277 275 275 273 273 273 271 267 263 260 262 262 263 264 262 259 260 259 257 262 260 254 251 249
21 308 106 268 175 203 234 263 239 313 318 313 43 235 137 157 178 143 296 282 201 225 209 229 247 259 264 267 273 283 291 314 298 298 251 236 252 247 234 250 251 256 256 276 288 292 287 279 280 280 284 289 284 289 290 290 295 291 291 292 282 276 275 273 272 270 269 269 270 267 265 261 262 265 264 262 262 260 260 262 264 262 259 261 253 251
5 149 225 140 276 147 280 318 321 306 282 281 213 224 253 198 170 188 86 293 254 219 202 207 236 250 262 267 273 291 345 341 311 297 227 226 227 234 257 243 252 257 266 282 292 293 289 281 273 273 275 282 285 278 280 283 284 286 288 284 281 280 279 274 272 270 267 268 267 266 265 261 260 265 264 262 259 260 261 259 263 264 259 257 263 258
340 95 19 137 251 56 147 194 242 241 245 227 203 201 183 244 111 232 32 283 283 215 183 190 220 239 241 252 267 342 6 310 284 288 224 215 237 217 248 259 250 254 264 272 278 288 293 292 283 278 284 283 285 281 271 272 276 283 279 277 279 278 277 274 273 273 270 266 262 263 265 265 264 264 266 266 263 261 266 262 260 263 264 260 260 259
103 88 60 335 257 217 169 233 241 216 252 263 177 186 200 164 140 63 345 276 266 193 176 179 207 226 240 239 247 252 207 257 275 284 296 295 294 272 263 277 279 280 282 284 283 275 279 286 298 297 286 280 274 268 265 267 271 268 270 271 272 277 273 271 270 269 262 263 267 267 270 269 270 268 267 271 272 266 262 265 271 269 266 265 255 262
139 262 200 220 208 224 206 265 313 275 270 246 195 171 173 186 83 81 232 242 226 198 200 175 203 217 222 244 231 258 223 220 254 276 294 302 306 299 287 258 257 260 268 277 281 290 294 290 278 269 266 266 273 275 261 254 257 265 266 270 275 270 266 268 271 268 264 266 273 276 273 273 269 275 274 264 268 268 267 264 267 272 269 267 266 263
246 164 216 123 237 215 197 215 239 264 253 187 120 152 167 105 223 213 236 211 163 205 221 186 208 225 223 237 234 237 257 255 267 280 288 287 281 283 285 281 282 281 270 264 272 279 281 286 287 285 277 262 263 260 248 238 248 259 267 271 266 264 269 271 268 267 269 273 274 275 274 275 278 271 275 279 276 280 273 265 261 263 266 266 264 265
186 148 203 196 209 168 192 233 328 297 285 118 125 81 278 156 230 213 208 248 187 187 193 225 207 233 214 248 243 251 263 269 272 277 280 285 287 287 290 290 286 284 290 293 292 279 277 286 285 284 283 277 263 260 246 224 243 255 260 262 261 267 268 264 268 273 275 275 275 273 273 275 278 281 281 279 272 268 274 272 266 263 261 263 265 263
177 151 210 221 177 164 168 178 211 212 174 159 144 182 201 212 219 188 160 273 240 198 222 242 231 218 215 223 251 262 262 275 281 277 283 285 286 283 283 280 272 271 276 270 262 274 275 273 276 282 283 277 263 258 248 222 244 250 257 260 262 266 270 273 276 277 276 271 271 275 274 274 278 275 273 274 276 270 268 273 267 262 257 257 257 264
186 203 180 201 193 184 201 214 233 220 170 194 196 219 194 215 230 241 249 245 265 271 249 242 252 249 236 242 248 258 278 261 266 275 278 281 285 286 290 290 289 285 279 280 281 277 272 269 277 279 281 282 276 264 254 230 236 251 254 261 265 268 272 274 277 275 274 272 274 277 278 279 273 273 272 270 267 274 272 271 264 268 262 255 257 256
230 214 38 359 244 254 263 225 255 232 202 216 233 241 247 246 230 230 239 256 253 252 253 256 262 259 259 246 261 268 255 270 274 277 276 277 280 282 282 285 284 275 269 274 282 277 270 273 271 274 278 282 276 274 261 245 224 246 254 264 265 264 266 273 280 279 272 271 273 275 280 282 279 266 261 264 254 254 259 263 267 263 271 259 257 256
234 199 215 224 264 77 267 187 219 237 240 216 223 244 248 251 251 234 239 240 255 259 265 264 264 268 263 262 250 259 268 264 268 270 272 275 273 273 277 279 281 278 280 281 270 277 284 279 278 275 274 279 284 279 274 264 246 240 258 263 260 259 263 268 269 272 273 271 272 274 272 272 278 282 270 257 260 255 259 258 255 257 265 259 260 260
289 175 206 234 230 208 247 190 231 235 248 256 239 248 249 246 248 245 240 247 250 254 252 257 260 266 260 261 247 250 260 260 259 268 271 271 272 273 275 276 279 284 271 255 271 272 273 273 271 275 275 273 279 282 279 278 273 260 253 259 255 254 259 262 258 263 268 268 266 270 269 270 273 273 276 265 250 266 273 262 243 250 254 260 248 255
190 113 224 181 211 246 275 279 265 275 293 275 266 252 242 255 258 251 243 246 246 248 251 253 238 248 246 249 250 244 258 261 249 256 262 269 272 270 270 272 274 273 278 278 267 259 265 274 276 269 269 273 276 279 279 277 275 271 262 258 247 242 251 256 255 256 263 265 267 269 264 259 263 266 269 273 262 245 245 269 271 247 257 249 231 233
102 229 210 341 261 261 236 249 180 260 260 264 244 239 245 244 249 259 259 261 257 254 252 255 261 248 246 246 245 244 246 263 257 248 258 260 265 268 269 269 271 273 275 267 262 258 264 264 265 273 271 269 271 272 273 275 276 272 249 247 237 233 244 256 259 261 264 260 261 266 270 267 263 261 264 270 278 280 276 241 245 249 246 269 256 242
208 229 186 232 225 255 243 216 230 238 263 254 279 282 239 222 228 239 238 243 252 246 249 254 268 274 262 257 241 242 249 250 260 252 257 263 263 260 258 265 272 273 270 273 279 273 263 267 269 268 268 266 267 265 265 269 273 276 250 232 234 229 243 249 260 262 264 264 260 259 261 265 269 266 265 268 273 278 280 296 279 254 244 242 256 260